Lid_Strength_Index
10 10 10 8 5 3 3 2 2 2 2 2 2 2 2 1 2 2 1 0 1 1 2 4 4 5 6 6 6 8 9 10 11 11 11 12 12 13 12 10 10 10 9
12 11 11 11 9 5 2 2 2 2 2 1 2 2 1 1 2 2 2 1 0 1 2 2 4 5 5 6 7 8 10 11 11 10 12 11 11 12 12 13 12 10 11
13 12 11 12 12 10 6 3 2 2 1 1 4 6 5 5 5 5 3 2 1 0 1 2 2 4 5 6 7 7 8 10 12 11 9 13 12 14 14 13 12 12 11
11 11 11 11 12 11 10 5 3 2 2 2 3 3 2 3 2 2 4 5 3 2 1 1 2 4 4 4 6 6 7 7 11 11 11 11 11 13 12 15 15 13 13
12 11 11 10 10 10 11 9 5 3 3 2 2 3 3 4 5 6 5 6 6 3 2 1 1 3 4 3 4 6 7 6 8 10 12 11 11 12 13 9 11 15 15
11 11 10 10 10 10 9 8 6 4 3 3 4 4 4 5 7 7 7 7 7 6 5 2 1 2 3 3 4 5 6 6 6 7 8 9 11 11 12 12 11 11 14
11 11 10 10 10 9 10 8 6 6 5 5 5 5 5 5 6 6 7 8 8 8 7 5 2 2 2 3 3 4 5 6 6 6 7 7 6 6 9 10 9 13 13
11 10 10 10 10 10 9 9 8 8 7 6 5 6 6 6 6 6 6 6 6 6 6 6 3 1 1 2 3 3 4 4 5 5 5 6 6 6 6 8 9 11 14
11 11 10 10 10 10 10 10 9 9 9 8 8 8 7 6 6 6 6 6 6 6 6 6 6 5 3 1 2 2 4 4 5 5 5 6 5 6 6 7 8 8 10
11 11 10 10 10 10 10 10 9 9 9 9 9 9 9 8 8 7 7 7 7 7 7 7 7 7 6 5 3 3 3 4 4 5 6 6 5 6 6 7 8 8 8
11 11 10 10 10 10 10 10 10 10 10 10 9 9 9 9 9 8 8 8 8 8 8 8 7 7 7 7 6 5 4 4 5 5 6 6 6 6 6 7 8 8 9
11 10 10 10 10 10 10 10 10 10 10 10 10 9 9 9 9 9 8 8 8 8 8 8 8 8 8 8 8 7 6 6 6 6 6 6 7 7 6 7 8 9 9
10 10 10 10 10 10 10 10 10 10 10 10 10 10 10 10 10 9 9 9 9 9 10 10 10 9 9 8 7 6 6 6 6 6 7 7 8 8 8 8 9 9 9
10 10 10 11 11 10 10 10 10 10 11 11 11 11 11 11 11 11 11 11 11 11 11 11 11 11 10 9 7 7 7 7 7 7 7 8 8 9 9 9 10 10 11
11 11 11 11 11 11 11 11 11 11 11 12 12 12 12 13 13 13 13 13 13 12 12 13 13 13 12 10 9 9 8 9 8 9 10 10 10 10 9 10 11 12 12
11 11 11 11 11 12 12 12 12 12 13 13 14 13 14 14 14 14 14 14 14 13 13 13 13 13 12 10 9 9 11 11 11 10 11 11 12 11 10 9 9 11 12
12 12 12 12 12 12 12 12 12 13 14 14 15 15 15 15 15 15 15 14 14 14 14 14 14 14 14 11 10 9 10 11 11 11 11 12 12 12 12 11 10 10 10
12 12 12 12 12 12 12 13 13 14 14 14 15 16 15 16 16 16 16 15 15 14 15 15 15 16 14 11 10 9 11 11 12 12 12 12 13 13 13 13 13 13 13
12 12 12 12 13 13 13 14 14 14 14 14 14 15 15 16 16 16 16 16 16 16 16 15 16 17 15 10 10 9 11 11 12 13 13 13 13 13 11 13 14 14 14
12 12 13 13 13 13 14 14 14 15 15 14 15 16 16 17 17 16 16 17 18 15 15 15 17 17 13 11 10 10 11 12 13 13 13 13 13 12 11 13 13 14 14
13 14 14 13 13 13 14 14 15 15 14 16 16 16 16 17 17 17 17 17 17 17 18 17 18 17 14 13 11 9 12 12 13 13 13 12 10 11 10 12 13 13 12
13 13 13 13 13 14 16 15 15 14 16 16 16 16 17 15 15 19 18 19 20 20 18 19 16 17 16 12 10 10 11 11 13 13 13 13 11 10 10 12 10 10 12
12 12 14 14 13 15 16 16 14 16 16 17 17 16 16 14 17 20 18 19 22 20 18 18 18 15 14 12 9 10 10 11 12 12 12 11 10 10 11 10 10 13 13
14 15 16 15 15 15 16 16 15 16 16 14 14 15 15 13 15 17 17 18 18 18 16 17 17 14 14 12 12 11 12 11 11 11 11 10 10 10 11 12 12 13 13
14 16 16 15 15 15 15 16 17 18 18 16 14 13 13 14 15 15 15 16 16 15 17 17 17 16 15 12 10 11 11 12 11 11 11 12 12 13 13 13 13 13 14
16 17 18 18 18 19 17 16 21 22 21 17 15 14 13 13 13 14 15 11 9 9 9 9 12 13 10 8 8 8 9 9 9 13 14 13 13 14 14 14 16 18 17